Temp
-6 -5 -5 -5 -5 -5 -4 -4 -5 -5 -4 -3 -2 -2 -1 -1 0 1 2 3 4 5 6 6 8 11 15
-6 -6 -6 -5 -5 -5 -5 -5 -5 -5 -4 -3 -3 -2 -1 -0 0 1 2 3 3 4 5 6 6 9 9
-6 -6 -6 -6 -6 -5 -5 -5 -5 -5 -4 -4 -3 -2 -1 -1 1 2 2 3 3 4 4 5 6 7 8
-6 -6 -5 -5 -6 -6 -6 -5 -5 -4 -4 -4 -3 -3 -2 -1 0 1 1 2 2 3 4 4 5 6 8
-5 -4 -5 -5 -5 -5 -5 -5 -5 -5 -5 -5 -4 -4 -3 -2 -1 -1 0 1 2 2 3 4 4 7 7
-4 -4 -4 -4 -4 -5 -5 -5 -5 -4 -4 -4 -4 -4 -4 -4 -3 -2 -1 0 1 2 2 3 4 5 7
-3 -3 -4 -4 -4 -4 -5 -5 -5 -5 -5 -5 -4 -5 -4 -4 -3 -2 -1 -0 -0 0 1 1 3 4 6
-3 -3 -3 -3 -4 -4 -4 -5 -5 -5 -5 -5 -5 -5 -4 -4 -3 -2 -2 -1 -0 0 0 1 2 4 4
-3 -2 -2 -2 -2 -4 -4 -4 -4 -4 -4 -5 -4 -5 -4 -4 -3 -3 -2 -1 -0 -0 0 1 2 3 4
-4 -3 -3 -3 -3 -3 -2 -4 -4 -3 -3 -4 -4 -4 -4 -3 -2 -2 -2 -1 0 0 1 1 3 3 4
-5 -5 -5 -4 -4 -4 -4 -3 -2 -3 -2 -3 -4 -4 -4 -3 -3 -2 -2 -1 -1 -0 0 2 3 3 5
-6 -6 -5 -5 -5 -4 -4 -4 -4 -4 -4 -4 -4 -5 -4 -4 -4 -3 -2 -2 -1 -1 -1 -0 0 1 2
-7 -6 -6 -6 -6 -6 -5 -4 -4 -4 -4 -4 -5 -5 -5 -4 -4 -3 -3 -2 -1 -1 -1 -1 -0 0 0
-7 -7 -7 -7 -6 -6 -5 -5 -4 -4 -4 -4 -4 -4 -4 -4 -4 -3 -3 -2 -1 -1 -2 -1 -0 -0 0
-8 -7 -7 -7 -6 -6 -6 -5 -5 -4 -4 -4 -3 -3 -3 -3 -3 -2 -2 -2 -2 -2 -2 -2 -2 -1 -1
-8 -8 -7 -7 -7 -6 -6 -6 -5 -5 -5 -4 -3 -3 -3 -3 -3 -2 -2 -2 -2 -2 -3 -2 -2 -2 -1
-8 -8 -8 -7 -7 -7 -6 -6 -6 -6 -5 -5 -5 -4 -3 -3 -1 -2 -2 -2 -2 -3 -3 -3 -2 -2 -2
Height
794 791 787 783 778 775 774 771 769 770 770 770 769 767 764 762 760 759 757 756 755 753 748 751 748 752 753
786 784 780 777 774 770 769 769 768 766 766 764 761 759 757 754 751 749 748 748 747 746 748 746 738 735 737
775 778 773 771 767 766 764 761 761 760 759 757 755 752 749 746 742 740 739 738 737 734 734 734 732 730 731
767 766 766 765 765 763 759 759 754 753 752 751 748 744 740 736 733 731 729 727 727 726 726 725 725 724 721
760 755 755 757 756 755 754 752 748 748 744 740 738 735 730 727 724 721 720 718 717 716 714 711 709 707 708
754 752 747 748 748 747 746 746 740 740 737 731 730 726 724 721 717 715 712 710 708 706 705 701 699 701 696
748 745 740 741 740 738 737 736 730 727 731 723 723 716 713 710 708 705 703 701 699 697 695 692 689 691 695
740 736 733 732 730 728 727 725 721 718 721 716 711 705 703 699 696 694 692 690 687 685 682 679 680 678 675
730 727 724 721 720 717 712 714 708 705 707 708 700 697 695 689 685 681 680 679 675 671 669 668 667 668 672
720 716 714 712 711 710 705 699 698 693 693 698 692 693 686 679 675 673 673 671 666 662 658 655 655 658 653
712 709 706 703 700 696 693 691 686 682 681 685 682 682 679 673 669 667 667 662 658 655 650 646 644 644 641
706 702 699 695 692 688 684 681 678 675 674 676 673 673 671 667 662 660 658 655 653 649 645 642 640 640 639
701 697 694 690 685 680 676 671 668 666 665 663 663 662 661 657 654 651 651 647 645 643 639 637 634 632 632
696 692 688 683 679 675 670 666 661 656 652 652 653 653 649 647 646 642 642 641 638 637 634 631 627 625 624
692 687 683 679 674 670 666 661 656 650 645 644 643 642 640 638 636 634 632 631 631 630 629 624 620 618 615
687 682 678 674 669 664 661 657 652 646 642 639 635 633 631 628 628 626 625 625 624 622 621 619 613 610 606
681 677 673 669 665 660 656 652 647 643 639 636 633 631 623 620 618 619 618 617 617 616 615 612 608 603 601
Wind_Speed
24 25 26 31 33 33 33 35 36 30 32 32 32 35 36 36 37 37 38 38 37 38 32 34 29 11 65
26 23 26 27 30 33 33 31 30 32 32 34 35 36 37 37 38 38 37 37 39 37 39 36 37 41 34
30 22 25 24 26 29 31 34 35 31 31 32 33 34 34 35 34 34 36 38 40 37 38 36 36 34 40
30 23 22 23 23 25 27 26 33 35 32 31 32 34 36 35 34 36 37 39 40 40 40 38 34 31 37
26 24 22 23 23 24 26 25 29 30 33 36 33 30 24 24 27 28 28 28 28 33 38 39 37 36 33
23 22 29 27 28 26 26 22 11 25 28 33 27 29 33 33 33 33 33 33 35 35 36 33 36 39 31
31 26 31 28 31 29 28 28 30 33 26 30 30 33 33 34 32 33 33 35 37 38 40 40 39 40 41
32 36 34 32 35 33 35 35 35 34 28 24 31 34 33 35 34 35 37 39 41 42 43 43 44 38 40
31 33 34 35 36 32 31 26 22 31 28 27 34 31 30 32 34 36 34 31 33 37 39 39 39 41 42
30 31 28 32 33 34 34 24 23 17 27 27 30 24 11 21 27 15 18 26 26 22 18 31 38 40 36
23 27 27 28 28 31 32 32 26 24 26 18 13 18 22 22 27 35 30 31 22 26 21 17 16 22 30
21 21 22 21 23 25 30 33 34 37 36 28 18 23 23 21 17 24 23 23 25 25 24 22 20 21 22
19 21 21 25 30 28 27 28 34 36 35 37 32 29 29 24 18 21 21 21 20 27 17 22 27 28 27
19 22 25 23 23 22 23 21 24 27 33 36 33 32 29 29 27 26 24 17 17 22 25 27 28 26 26
19 20 20 20 21 20 21 21 18 19 22 24 27 31 32 30 23 22 24 21 21 23 20 22 24 26 26
19 18 19 19 20 20 18 17 16 16 18 17 21 20 19 21 28 23 19 19 19 21 20 19 22 23 22
19 20 20 19 20 18 18 16 15 16 16 16 16 13 7 8 13 20 21 22 24 20 17 17 20 24 24
Wind_Direction
272 283 287 296 304 306 307 310 306 300 297 293 288 286 285 282 280 279 277 277 275 275 279 283 283 310 225
279 281 280 287 296 299 299 297 291 292 289 288 286 284 282 279 278 276 274 273 274 268 263 270 292 288 305
275 274 275 279 281 286 287 291 292 287 288 286 284 281 277 277 276 273 272 269 268 274 265 266 274 288 273
270 276 276 279 270 268 273 273 278 286 284 283 285 284 279 273 270 271 275 272 269 268 266 262 262 276 278
265 276 275 275 260 264 261 270 272 273 276 282 283 286 276 274 276 281 274 272 272 269 266 262 262 270 287
257 262 267 261 269 260 260 264 272 273 266 271 277 272 277 280 281 278 278 276 273 274 276 268 260 263 277
278 271 264 264 267 266 256 252 255 263 266 268 273 272 273 275 277 278 274 273 273 273 273 272 265 261 253
272 274 276 278 270 263 261 261 262 261 256 265 269 267 271 271 273 273 273 273 272 271 269 269 260 262 263
279 280 280 280 277 264 242 242 253 256 251 244 263 265 270 271 271 271 270 273 276 269 263 264 259 258 258
287 284 283 284 281 271 269 239 243 262 252 238 254 257 269 267 272 263 292 290 291 292 286 266 254 257 257
290 296 290 287 283 272 263 255 254 243 254 242 246 241 243 271 278 284 291 283 283 299 305 285 270 252 256
297 292 288 291 294 296 274 264 258 259 266 256 255 246 255 263 271 279 274 281 289 288 294 296 285 284 274
286 285 289 292 300 294 291 283 264 259 261 260 251 251 247 251 261 263 273 277 275 279 277 296 300 304 293
290 292 296 295 293 294 295 296 271 263 263 260 252 250 249 245 248 258 256 256 269 276 286 290 294 292 286
289 291 293 294 293 297 296 296 298 281 262 258 254 257 255 254 251 250 252 252 261 276 280 282 284 287 286
293 292 292 292 296 297 298 293 292 290 293 296 259 246 247 253 250 254 248 258 261 267 272 275 284 289 295
293 293 293 294 298 295 295 293 292 293 292 297 300 305 273 256 258 238 238 261 271 269 273 267 279 283 286